Tracking 28066 objects as of 21-Sep-2023
HD Live streaming from Space Station
objects crossing your sky now

SL-8 DEB

Track SL-8 DEB now!
10-day predictions


NORAD ID: 27746
Int'l Code: 1991-009DB
Perigee: 1,485.0 km
Apogee: 1,763.7 km
Inclination: 74.1 °
Period: 118.6 minutes
Semi major axis: 7995 km
RCS: 0.0277 m2 (small)
Launch date: February 12, 1991
Source: Commonwealth of Independent States (former USSR) (CIS)
Launch site: PLESETSK MISSILE AND SPACE COMPLEX (PKMTR)

Note: This is SATELLITE DEBRIS
Your satellite tracking list
Your tracking list is empty




NASA's NSSDC Master Catalog

Two Line Element Set (TLE):
1 27746U 91009DB  23263.39793500  .00000209  00000-0  21997-2 0  9998
2 27746  74.1001 233.7771 0174297  35.9583 117.5692 12.14367923452251
Source of the keplerian elements: AFSPC